Schedule Details


Flight Number: CTN471
Departure: Charles-de-gaulle (LFPG) at 18:30
Arrival: Franjo Tudman (LDZA) at 20:20
Route: LANVI UM164 EPL UN491 DEGES UN871 MADEB UN606 ELMEM UL607 GEDSO DCT VEKEN Y177 DEGUM DCT ARGOM

Weather Information
LFPG 162330Z 22010KT 200V280 8000 -RA FEW009 BKN031 07/07 Q1013 NOSIG
LDZA 162330Z VRB02KT CAVOK M03/M05 Q1020 NOSIG
Schedule Frequency

Route Map